Location: Indian Hills
(32.9760°N, 85.9450°W)
Time: 03:29:29
(UTC+00:00)

METEOR-M - Pass Details

Date: 09 December 2019
Orbit: 817 x 819 km, 98.4° (Epoch: 26 January)

Event Time Altitude Azimuth Distance (km) Brightness Sun altitude
Rises 11:09:17 0° 10° (N) 3,351 7.3 -17.5°
Reaches altitude 10° 11:11:38 10° 9° (N) 2,416 6.5 -17.0°
Maximum altitude 11:16:59 76° 285° (WNW) 844 4.0 -16.0°
Drops below altitude 10° 11:22:17 10° 200° (SSW) 2,403 6.6 -14.9°
Sets 11:24:38 0° 198° (SSW) 3,332 7.3 -14.4°
